Regional Weather Roundup
Issued by NWS Boston, MA

Home | Current Version | Previous Version | Text Only | Print | Product List | Glossary On
Versions: 1 2 3 4 5 6 7 8 9 10 11 12 13 14 15 16 17 18 19 20 21 22 23 24 25 26 27
000
ASUS41 KBOX 050110
RWRBOX

REGIONAL WEATHER ROUNDUP
NATIONAL WEATHER SERVICE TAUNTON MA
800 PM EST SUN DEC 04 2016

NOTE:  "FAIR" INDICATES FEW OR NO CLOUDS BELOW 12,000 FEET WITH NO
SIGNIFICANT WEATHER AND/OR OBSTRUCTIONS TO VISIBILITY.

MAZALL-050200-
EASTERN MASSACHUSETTS

CITY           SKY/WX    TMP DP  RH WIND       PRES   REMARKS
BOSTON         CLEAR     35  20  54 N7        30.22R WCI  29
BEVERLY        CLEAR     30  20  66 NW5       30.20R WCI  25
LAWRENCE       CLEAR     32  21  64 NW3       30.22R
BEDFORD        CLEAR     27  18  69 W3        30.21R
BLUE HILL        N/A     30  18  60 N9        30.18R WCI  22
NORWOOD        PTCLDY    23  18  81 CALM      30.21R
MARSHFIELD     CLEAR     30  23  74 NW6       30.20S WCI  24
PLYMOUTH       PTCLDY    25  18  74 CALM      30.20R
TAUNTON        CLEAR     24  19  81 CALM      30.21R
NEW BEDFORD    CLEAR     26  21  81 CALM      30.20R
$$

MAZALL-050200-
CAPE COD AND THE ISLANDS

CITY           SKY/WX    TMP DP  RH WIND       PRES   REMARKS
FALMOUTH       CLEAR     25  19  80 MISG      30.19S
HYANNIS        CLEAR     30  22  72 W5        30.18R WCI  25
CHATHAM        CLEAR     29  24  82 W3        30.20R
PROVINCETOWN   PTCLDY    39  25  57 NW9       30.20R
NANTUCKET      CLEAR     32  22  66 W5        30.20R WCI  27
MARTHAS VNYRD  CLEAR     22  15  75 CALM      30.20R
$$

MAZALL-050200-
CENTRAL AND WESTERN MASSACHUSETTS

CITY           SKY/WX    TMP DP  RH WIND       PRES   REMARKS
WORCESTER      CLEAR     30  17  58 NW8       30.16S WCI  22
FITCHBURG      PTCLDY    27  20  75 NW3       30.21R
ORANGE         PTCLDY    25  21  85 E3        30.20S
SPRINGFIELD    PTCLDY    26  19  72 CALM      30.19S
WESTFIELD      PTCLDY    26  22  84 CALM      30.20S
NORTH ADAMS    CLOUDY    22  18  85 CALM      30.19F
PITTSFIELD     PTCLDY    24  18  77 CALM      30.15S
$$

RIZALL-050200-
RHODE ISLAND

CITY           SKY/WX    TMP DP  RH WIND       PRES   REMARKS
PROVIDENCE     PTCLDY    30  20  66 W3        30.21R
NEWPORT        CLEAR     30  23  75 CALM      30.20R
BLOCK ISLAND   PTCLDY    36  23  59 N3        30.20F
SMITHFIELD     CLEAR     28  19  69 N5        30.19R WCI  23
WESTERLY       CLOUDY    29  20  69 CALM      30.21F
$$

CTZALL-050200-
CONNECTICUT

CITY           SKY/WX    TMP DP  RH WIND       PRES   REMARKS
BRADLEY INTL   PTCLDY    28  18  66 CALM      30.21S
HARTFORD       PTCLDY    30  22  72 NE5       30.21F WCI  25
BRIDGEPORT     CLOUDY    37  21  52 NW3       30.21S
DANBURY        CLOUDY    30  22  72 CALM      30.20S
GROTON         PTCLDY    32  25  75 NE5       30.20F WCI  27
NEW HAVEN      CLOUDY    32  23  69 N3        30.20S
CHESTER        FAIR      34  19  55 N3        30.18F
MERIDEN        CLOUDY    29  22  75 CALM      30.20F
WILLIMANTIC    CLOUDY    29  24  82 NE3       30.21F
OXFORD         PTCLDY    32  18  55 N5        30.19S WCI  27
$$

MEZ002-015-021-024-NHZ003-005-008-011-012-014-VTZ005-008-050200-
NORTHERN NEW ENGLAND

CITY           SKY/WX    TMP DP  RH WIND       PRES   REMARKS
PORTLAND ME    CLEAR     30  17  58 N3        30.20R
BANGOR ME      CLEAR     25  18  74 NW7       30.18S WCI  17
CONCORD NH     CLEAR     27  18  69 N3        30.20R
MANCHESTER NH  CLEAR     31  19  61 N3        30.19R
NASHUA NH      CLEAR     28  22  78 CALM      30.22R
PORTSMOUTH NH  CLEAR     30  19  62 W2        30.20R
JAFFREY NH     CLEAR     28  19  69 N5        30.17R WCI  23
KEENE NH       CLEAR     26  20  77 CALM      30.22R
BURLINGTON VT  MOCLDY    30  22  72 E3        30.21F
MT. WASHINGTON PTCLDY    16   3  57 N17         N/A  WCI   0
$$

NYZ052-076-050200-
EASTERN NEW YORK

CITY           SKY/WX    TMP DP  RH WIND       PRES   REMARKS
ALBANY         CLOUDY    25  19  78 CALM      30.21F
NEW YORK CITY  CLOUDY    44  24  45 E12       30.19S
$$

ANZALL-050200-
MARINE OBSERVATIONS

STATION/POSITION TIME  TEMP    WIND        PRES    VSBY  WAVE
                       AIR SEA DIR/SP/G                  HT/PER
                 (UTC) (F)     (DEG/KT/KT) (MB)    (MI)  (FT/S)
BOSTON BUOY      0050   39 50  330/ 14/ 17 1021.8R         2/ 6
BUZZARDS BAY     0000   40     330/  7/  9 1023.0R
NANTUCKET SOUND  NOT AVBL
MASS BAY-STELLWA 0004   39 50  320/ 14/ 16 1021.9R  1 7/8  3/ 6
ISLE OF SHOALS   0000   36     320/ 17/ 19 1021.7R
S OF BLOCK IS    0055      55                N/A           2/ 7
$$

......................KEY.........................
  SKY/WX - SKY CONDITION/PRESENT WEATHER
  TMP    - TEMPERATURE IN FAHRENHEIT
  DWPT   - DEWPOINT IN FAHRENHEIT
  RH     - RELATIVE HUMIDITY IN PERCENT
  WIND   - DIRECTION AND SPEED IN MPH
  PRES   - MEAN SEA LEVEL PRESSURE IN INCHES OF HG
  WCI    - WIND CHILL INDEX
  VSB    - VISIBILITY IN MILES
  HX     - HEAT INDEX
  TC     - TEMPERATURE IN CELSIUS
  VRB    - VARIABLE WIND DIRECTION
  N/A    - NOT AVAILABLE




USA.gov is the U.S. government's official web portal to all federal, state and local government web resources and services.